Airport details for: LGLR (Greece)

Metar

LGLR 111250Z 00000KT CAVOK 13/03 Q1021 RMK FEW180 BLU

General details

ICAO: LGLR
IATA: LRA
Name (city): Larissa
Major:
Country: Greece
vACC: Hellenic vACC
Description:

Larissa State Airport "Thessaly" (IATA: LRA, ICAO: LGLR) was built in 1912. It was the commercial airport of Larissa until 1997 when it closed for civilian traffic. Currently the airport is being used only by military aircraft of the Hellenic Air Force, whose 110th Combat Wing is stationed there. The runways do not have an ILS.

The airport is very close to the town (3 km).

Scenery links:
FS9 scenery:
FSX/P3D scenery:
XP scenery:
Elevation: 233 ft.
Transition altitude: 11000 ft.
MSA: 9700 ft.
Latitude: 39.648611
Longitude: 22.448611
LGLR Charts
LGLR Notams
LGLR Online stations

Runways

Number Course Length Elevation Lat Lon ILS ILS freq ILS FAC GP
08R 78° 9709ft / 2959 m 239ft 39.639789 22.420972 - - 3.0°
26L 258° 9709ft / 2959 m 227ft 39.656506 22.454655 - - 3.0°